Location: Sungai Juaw
(2.6833°N, 113.5333°E)
Time: 00:47:09
(UTC+00:00)

ATLAS 3B R/B - Pass Details

Date: 04 August 2024
Orbit: 940 x 1254 km, 63.8° (Epoch: 19 September)

Event Time Altitude Azimuth Distance (km) Brightness Sun altitude
Rises 21:24:49 0° 330° (NNW) 4,148 5.7 -15.2°
Reaches altitude 10° 21:27:41 10° 326° (NNW) 3,156 5.0 -14.5°
Maximum altitude 21:35:07 60° 249° (WSW) 1,315 2.9 -12.8°
Drops below altitude 10° 21:42:05 10° 170° (S) 2,955 4.9 -11.1°
Sets 21:44:42 0° 166° (SSE) 3,868 5.6 -10.5°
